Location: Appeville
(49.3218°N, 1.3427°W)
Time: 01:48:39
(UTC+00:00)

Cosmos 1627 Rocket - Pass Details

Date: 08 December 2019
Orbit: 951 x 1003 km, 82.9° (Epoch: 25 January)

Event Time Altitude Azimuth Distance (km) Brightness Sun altitude
Rises 05:42:05 0° 349° (N) 3,666 7.3 -19.4°
Reaches altitude 10° 05:44:35 10° 348° (NNW) 2,722 6.6 -19.0°
Maximum altitude 05:50:48 76° 264° (W) 1,010 4.4 -18.0°
Drops below altitude 10° 05:57:04 10° 180° (S) 2,739 7.0 -17.0°
Sets 05:59:36 0° 179° (S) 3,690 7.8 -16.6°
